TimeHST,TemperatureF,Dew PointF,Humidity,Sea Level PressureIn,VisibilityMPH,Wind Direction,Wind SpeedMPH,Gust SpeedMPH,PrecipitationIn,Events,Conditions,WindDirDegrees,DateUTC
12:54 AM,64.9,60.1,84,30.05,10.0,Calm,Calm,-,N/A,,Clear,0,2011-12-02 10:54:00
1:54 AM,64.0,59.0,84,30.03,10.0,Calm,Calm,-,N/A,,Clear,0,2011-12-02 11:54:00
2:54 AM,63.0,57.9,84,30.00,10.0,Calm,Calm,-,N/A,,Clear,0,2011-12-02 12:54:00
3:54 AM,63.0,57.9,84,30.02,10.0,SE,5.8,-,N/A,,Clear,130,2011-12-02 13:54:00
4:54 AM,63.0,57.9,84,30.02,10.0,SE,6.9,-,N/A,,Clear,130,2011-12-02 14:54:00
5:54 AM,63.0,57.9,84,30.04,10.0,Calm,Calm,-,N/A,,Partly Cloudy,0,2011-12-02 15:54:00
6:54 AM,62.1,57.0,84,30.05,10.0,Calm,Calm,-,N/A,,Partly Cloudy,0,2011-12-02 16:54:00
7:54 AM,66.9,61.0,81,30.06,10.0,Calm,Calm,-,N/A,,Scattered Clouds,0,2011-12-02 17:54:00
8:54 AM,77.0,64.9,66,30.08,10.0,North,6.9,-,N/A,,Scattered Clouds,360,2011-12-02 18:54:00
9:54 AM,79.0,66.9,66,30.09,10.0,North,11.5,-,N/A,,Partly Cloudy,350,2011-12-02 19:54:00
10:54 AM,81.0,68.0,65,30.08,10.0,North,10.4,-,N/A,,Partly Cloudy,360,2011-12-02 20:54:00
11:54 AM,82.0,69.1,65,30.06,10.0,NNE,13.8,-,N/A,,Scattered Clouds,20,2011-12-02 21:54:00
12:54 PM,82.0,69.1,65,30.03,10.0,North,15.0,-,N/A,,Scattered Clouds,10,2011-12-02 22:54:00
1:54 PM,82.0,68.0,62,30.01,10.0,NE,18.4,21.9,N/A,,Scattered Clouds,50,2011-12-02 23:54:00
2:54 PM,80.1,68.0,67,30.00,10.0,ENE,17.3,26.5,N/A,,Scattered Clouds,60,2011-12-03 00:54:00
3:54 PM,77.0,66.0,69,30.01,10.0,NE,20.7,25.3,N/A,,Scattered Clouds,40,2011-12-03 01:54:00
4:54 PM,73.9,66.9,79,30.02,10.0,NE,21.9,-,N/A,,Scattered Clouds,40,2011-12-03 02:54:00
5:54 PM,75.0,66.9,76,30.04,10.0,NE,15.0,-,N/A,,Scattered Clouds,40,2011-12-03 03:54:00
6:54 PM,73.9,68.0,82,30.06,10.0,North,10.4,-,N/A,,Scattered Clouds,350,2011-12-03 04:54:00
7:54 PM,75.0,69.1,82,30.06,10.0,NNE,15.0,-,N/A,,Scattered Clouds,30,2011-12-03 05:54:00
8:54 PM,73.0,66.0,79,30.06,10.0,Calm,Calm,-,N/A,,Mostly Cloudy,0,2011-12-03 06:54:00
9:54 PM,70.0,64.9,84,30.06,10.0,Calm,Calm,-,N/A,,Mostly Cloudy,0,2011-12-03 07:54:00
10:54 PM,70.0,64.0,81,30.06,10.0,SSE,4.6,-,N/A,,Clear,150,2011-12-03 08:54:00
11:54 PM,70.0,64.0,81,30.04,10.0,ESE,6.9,-,N/A,,Clear,110,2011-12-03 09:54:00